Tiempo cada hora Dabrowice

Hoy, 18 Junio, Viernes

Tiempo Temperatura Precipitaciones Viento Presión Humedad
00:00 +18°C° 0 mm 3 mps 748 mmHg 75%
01:00 +18°C° 0 mm 2 mps 748 mmHg 76%
02:00 +17°C° 0 mm 2 mps 748 mmHg 78%
03:00 +17°C° 0 mm 2 mps 748 mmHg 81%
04:00 +17°C° 0 mm 2 mps 748 mmHg 83%
05:00 +19°C° 0 mm 2 mps 748 mmHg 78%
06:00 +21°C° 0 mm 2 mps 748 mmHg 73%
07:00 +24°C° 0 mm 2 mps 748 mmHg 68%
08:00 +26°C° 0 mm 2 mps 748 mmHg 62%
09:00 +27°C° 0 mm 2 mps 748 mmHg 56%
10:00 +29°C° 0 mm 3 mps 748 mmHg 50%
11:00 +30°C° 0 mm 3 mps 748 mmHg 47%
12:00 +31°C° 0 mm 3 mps 748 mmHg 43%
13:00 +31°C° 0 mm 3 mps 747 mmHg 39%
14:00 +33°C° 0 mm 3 mps 747 mmHg 39%
15:00 +33°C° 0 mm 3 mps 747 mmHg 39%
16:00 +33°C° 0 mm 3 mps 747 mmHg 39%
17:00 +30°C° 0 mm 3 mps 747 mmHg 48%
18:00 +28°C° 0 mm 3 mps 747 mmHg 56%
19:00 +27°C° 0 mm 4 mps 747 mmHg 65%
20:00 +25°C° 0 mm 3 mps 747 mmHg 70%
21:00 +24°C° 0 mm 3 mps 747 mmHg 75%
22:00 +21°C° 0 mm 2 mps 747 mmHg 80%
23:00 +21°C° 0 mm 2 mps 747 mmHg 83%

Mañana, 19 Junio, Sábado

Tiempo Temperatura Precipitaciones Viento Presión Humedad
00:00 +20°C° 0 mm 2 mps 747 mmHg 85%
01:00 +19°C° 0 mm 2 mps 747 mmHg 88%
02:00 +19°C° 0 mm 2 mps 747 mmHg 89%
03:00 +19°C° 0 mm 2 mps 747 mmHg 89%
04:00 +18°C° 0 mm 2 mps 747 mmHg 90%
05:00 +20°C° 0 mm 2 mps 747 mmHg 84%
06:00 +23°C° 0 mm 2 mps 747 mmHg 78%
07:00 +25°C° 0 mm 2 mps 747 mmHg 72%
08:00 +26°C° 0 mm 2 mps 747 mmHg 65%
09:00 +28°C° 0 mm 3 mps 747 mmHg 59%
10:00 +30°C° 0 mm 3 mps 746 mmHg 52%
11:00 +31°C° 0 mm 3 mps 746 mmHg 48%
12:00 +32°C° 0 mm 2 mps 746 mmHg 44%
13:00 +32°C° 0 mm 2 mps 746 mmHg 41%
14:00 +33°C° 0 mm 3 mps 746 mmHg 40%
15:00 +33°C° 0 mm 3 mps 745 mmHg 40%
16:00 +33°C° 0 mm 3 mps 745 mmHg 40%
17:00 +31°C° 0 mm 3 mps 745 mmHg 47%
18:00 +29°C° 0 mm 4 mps 745 mmHg 55%
19:00 +27°C° 0 mm 4 mps 745 mmHg 63%
20:00 +25°C° 0 mm 3 mps 745 mmHg 68%
21:00 +24°C° 0 mm 3 mps 745 mmHg 73%
22:00 +21°C° 0 mm 3 mps 746 mmHg 79%
23:00 +21°C° 0 mm 3 mps 745 mmHg 81%

Pasado mañana, 20 Junio, Domingo

Tiempo Temperatura Precipitaciones Viento Presión Humedad
00:00 +20°C° 0 mm 2 mps 745 mmHg 84%
01:00 +19°C° 0 mm 2 mps 745 mmHg 86%
02:00 +19°C° 0 mm 2 mps 745 mmHg 87%
03:00 +18°C° 0 mm 2 mps 745 mmHg 89%
04:00 +18°C° 0 mm 2 mps 745 mmHg 90%
05:00 +20°C° 0 mm 2 mps 745 mmHg 83%
06:00 +21°C° 0 mm 2 mps 745 mmHg 76%
07:00 +24°C° 0 mm 3 mps 745 mmHg 69%
08:00 +25°C° 0 mm 3 mps 745 mmHg 62%
09:00 +27°C° 0 mm 3 mps 744 mmHg 56%
10:00 +29°C° 0 mm 3 mps 744 mmHg 49%
11:00 +30°C° 0 mm 3 mps 744 mmHg 46%
12:00 +31°C° 0 mm 3 mps 743 mmHg 43%
13:00 +31°C° 0 mm 3 mps 743 mmHg 40%
14:00 +33°C° 0 mm 3 mps 742 mmHg 39%
15:00 +33°C° 0 mm 3 mps 742 mmHg 39%
16:00 +33°C° 0 mm 3 mps 742 mmHg 39%
17:00 +30°C° 0 mm 3 mps 741 mmHg 47%
18:00 +29°C° 0 mm 3 mps 741 mmHg 54%
19:00 +27°C° 0 mm 3 mps 741 mmHg 62%
20:00 +26°C° 0 mm 3 mps 741 mmHg 67%
21:00 +25°C° 0 mm 3 mps 741 mmHg 72%
22:00 +24°C° 0 mm 3 mps 741 mmHg 77%
23:00 +23°C° 0 mm 2 mps 741 mmHg 80%

21 Junio, Lunes

Tiempo Temperatura Precipitaciones Viento Presión Humedad
00:00 +21°C° 0 mm 2 mps 741 mmHg 83%
01:00 +21°C° 0 mm 2 mps 741 mmHg 86%
02:00 +21°C° 0 mm 2 mps 741 mmHg 85%
03:00 +21°C° 0 mm 2 mps 741 mmHg 84%
04:00 +21°C° 0 mm 2 mps 741 mmHg 83%
05:00 +23°C° 0 mm 2 mps 741 mmHg 79%
06:00 +24°C° 0 mm 2 mps 741 mmHg 75%
07:00 +26°C° 0 mm 2 mps 741 mmHg 70%
08:00 +27°C° 0 mm 2 mps 741 mmHg 65%
09:00 +28°C° 0 mm 2 mps 741 mmHg 60%
10:00 +30°C° 0 mm 3 mps 741 mmHg 56%
11:00 +29°C° 0.3 mm 3 mps 741 mmHg 60%
12:00 +28°C° 0.3 mm 3 mps 741 mmHg 64%
13:00 +27°C° 0.3 mm 3 mps 741 mmHg 69%
14:00 +27°C° 0.4 mm 2 mps 741 mmHg 67%
15:00 +27°C° 0.4 mm 2 mps 741 mmHg 66%
16:00 +27°C° 0.4 mm 1 mps 741 mmHg 65%
17:00 +26°C° 2.3 mm 2 mps 741 mmHg 73%
18:00 +24°C° 2.3 mm 3 mps 741 mmHg 81%
19:00 +22°C° 2.3 mm 4 mps 741 mmHg 89%
20:00 +21°C° 3.8 mm 3 mps 741 mmHg 91%
21:00 +20°C° 3.8 mm 3 mps 741 mmHg 92%
22:00 +19°C° 3.8 mm 2 mps 741 mmHg 93%
23:00 +19°C° 0 mm 2 mps 741 mmHg 94%

22 Junio, Martes

Tiempo Temperatura Precipitaciones Viento Presión Humedad
00:00 +20°C° 0 mm 1 mps 741 mmHg 94%
01:00 +17°C° 0 mm 0 mps 741 mmHg 94%
02:00 +19°C° 0 mm 1 mps 741 mmHg 95%
03:00 +19°C° 0 mm 1 mps 741 mmHg 95%
04:00 +19°C° 0 mm 1 mps 741 mmHg 95%
05:00 +20°C° 0 mm 1 mps 742 mmHg 93%
06:00 +21°C° 0 mm 1 mps 742 mmHg 90%
07:00 +22°C° 0 mm 1 mps 742 mmHg 87%
08:00 +23°C° 0 mm 2 mps 742 mmHg 80%
09:00 +25°C° 0 mm 2 mps 742 mmHg 73%
10:00 +26°C° 0 mm 2 mps 743 mmHg 67%
11:00 +27°C° 0 mm 2 mps 743 mmHg 63%
12:00 +28°C° 0 mm 2 mps 743 mmHg 60%
13:00 +29°C° 0 mm 2 mps 743 mmHg 56%
14:00 +29°C° 0 mm 2 mps 743 mmHg 57%
15:00 +29°C° 0 mm 2 mps 742 mmHg 59%
16:00 +29°C° 0 mm 2 mps 742 mmHg 60%
17:00 +28°C° 0 mm 2 mps 742 mmHg 65%
18:00 +27°C° 0 mm 2 mps 742 mmHg 70%
19:00 +26°C° 0 mm 2 mps 742 mmHg 75%
20:00 +25°C° 0.1 mm 2 mps 742 mmHg 80%
21:00 +23°C° 0.1 mm 1 mps 742 mmHg 84%
22:00 +22°C° 0.1 mm 1 mps 742 mmHg 89%
23:00 +22°C° 0 mm 1 mps 742 mmHg 90%

23 Junio, Miércoles

Tiempo Temperatura Precipitaciones Viento Presión Humedad
00:00 +21°C° 0 mm 1 mps 742 mmHg 91%
01:00 +21°C° 0 mm 1 mps 742 mmHg 92%
02:00 +21°C° 0 mm 1 mps 742 mmHg 93%
03:00 +20°C° 0 mm 1 mps 741 mmHg 93%
04:00 +20°C° 0 mm 1 mps 741 mmHg 93%
05:00 +20°C° 0.7 mm 2 mps 741 mmHg 91%
06:00 +21°C° 0.7 mm 2 mps 742 mmHg 89%
07:00 +22°C° 0.7 mm 3 mps 742 mmHg 87%
08:00 +23°C° 0.1 mm 4 mps 742 mmHg 80%
09:00 +23°C° 0.1 mm 5 mps 742 mmHg 73%
10:00 +23°C° 0.1 mm 6 mps 742 mmHg 65%
11:00 +23°C° 0 mm 7 mps 743 mmHg 60%
12:00 +24°C° 0 mm 8 mps 743 mmHg 55%
13:00 +24°C° 0 mm 9 mps 744 mmHg 50%
14:00 +23°C° 0 mm 9 mps 744 mmHg 53%
15:00 +21°C° 0 mm 8 mps 745 mmHg 57%
16:00 +20°C° 0 mm 8 mps 746 mmHg 60%
17:00 +18°C° 0 mm 7 mps 746 mmHg 65%
18:00 +16°C° 0 mm 6 mps 746 mmHg 70%
19:00 +15°C° 0 mm 5 mps 747 mmHg 76%
20:00 +14°C° 0 mm 5 mps 748 mmHg 77%
21:00 +13°C° 0 mm 4 mps 748 mmHg 78%
22:00 +12°C° 0 mm 3 mps 749 mmHg 80%
23:00 +12°C° 0 mm 3 mps 749 mmHg 80%
Mostrar más

Necesitamos Su Consentimiento

Meteoprog y nuestros Proveedores de Servicios pueden almacenar y acceder a sus datos personales como cookies, identificadores de dispositivo u otras tecnologías similares de su dispositivo y procesar dichos datos para personalizar contenido y anuncios, además de ofrecer funciones de redes sociales y analizar el tráfico.

  • Almacenar y/o acceder a información en su dispositivo

    Se puede almacenar o acceder a cookies, identificadores de dispositivo u otra información de su dispositivo para los fines anteriormente indicados.

  • Anuncios y contenido personalizados, medición de anuncios y contenido, percepciones del público, y desarrollo de productos

    Los anuncios y el contenido pueden personalizarse en base a su perfil. Se pueden añadir más datos para personalizar mejor los anuncios y contenidos. Se puede medir el rendimiento de los anuncios y contenidos. Se puede obtener la percepción sobre el público que ha visto los anuncios y contenidos. Dichos datos pueden usarse para desarrollar o mejorar la experiencia del usuario, sistemas y software.

Al hacer clic en ‘Estoy De Acuerdo’ usted permitirá el uso de las cookies, identificadores de dispositivo, balizas web u otras tecnologías similares indicadas. Su configuración puede cambiarse desde el navegador de su dispositivo.

Para ciertos fines, los intereses legítimos pueden ser considerados por encima del consentimiento. Puede leer más sobre ello en nuestra Política de Privacidad y Cookies.